Hourly Data Report for September 16, 2017

All times are specified in Local Standard Time (LST). Add 1 hour to adjust for Daylight Saving Time where and when it is observed.

ST. STEPHEN
NEW BRUNSWICK

45°12'36.600" N
67°15'10.300" W
26.10 m
8104935
71607
WSS

Download Data

Hourly Data (September 2017)
Hourly Data Report for September 16, 2017
Temp Definition
°C
Dew Point Temp Definition
°C
Rel Hum Definition
%
Wind Dir Definition
10's deg

Wind Spd Definition
km/h
Visibility Definition
km
Stn Press Definition
kPa
Hmdx Definition


Wind Chill Definition


Weather Definition


TIME
00:00 15.1 14.5 97 9 1   101.73     LegendNANA
01:00 15.2 14.7 97 8 2   101.73     LegendNANA
02:00 15.3 14.8 97 11 2   101.69     LegendNANA
03:00 15.3 14.8 97 12 2   101.68     LegendNANA
04:00 15.6 15.1 97 6 1   101.71     LegendNANA
05:00 16.0 15.6 97 24 4   101.71     LegendNANA
06:00 16.0 15.6 97 23 1   101.70     LegendNANA
07:00 15.9 15.5 97 20 3   101.71     LegendNANA
08:00 16.0 15.6 97 26 5   101.76     LegendNANA
09:00 16.4 16.0 97 24 1   101.79     LegendNANA
10:00 17.3 16.7 96 23 3   101.76     LegendNANA
11:00 19.1 16.6 86 21 3   101.73     LegendNANA
12:00 22.8 17.8 73 15 3   101.69 29   LegendNANA
13:00 24.6 17.6 65 13 4   101.65 30   LegendNANA
14:00 25.9 17.7 60 23 8   101.60 32   LegendNANA
15:00 26.7 17.4 56 20 5   101.57 32   LegendNANA
16:00 26.6 19.0 63 22 5   101.59 33   LegendNANA
17:00 25.1 19.2 70 8 4   101.56 32   LegendNANA
18:00 22.4 18.3 77 9 5   101.59 29   LegendNANA
19:00 19.8 17.7 87 7 3   101.63     LegendNANA
20:00 18.3 16.9 92 11 3   101.67     LegendNANA
21:00 17.0 16.1 94 10 3   101.68     LegendNANA
22:00 16.0 15.1 95   0   101.71     LegendNANA
23:00 15.9 15.2 96 14 4   101.74     LegendNANA

Notes on Data Quality.

Legend

  • E = Estimated
  • M = Missing
  • NA = Not Available
  • ‡ = Partner data that is not subject to review by the National Climate Archives
Date modified: